LTBY

Details ICAO LTBY (AOE)
Name ANADOLU
Region Turkey
Timezone Europe/Istanbul (UTC+3.0)
Plans Departing 31
Arriving 22
Stats Elevation 2,588 ft / 789 m (AMSL)
Location 39.809907° 30.519393°
Runways 1
Magnetic Variation 5.480° E
Sunrise 2018-05-20 02:40:35 UTC / 2018-05-20 05:40:35 Local
Sunset 2018-05-20 17:11:08 UTC / 2018-05-20 20:11:08 Local
Advertisement - Login to hide

Runways

ID Width Length Bearing (true) Bearing (mag) Surface Threshold Offset Overrun Length
09 98 ft / 30 m 8,250 ft / 2,515 m 92.76° 87.28° Asphalt 0 ft / 0 m 97 ft / 30 m
27 98 ft / 30 m 8,250 ft / 2,515 m 272.78° 267.30° Asphalt 0 ft / 0 m 95 ft / 29 m

Map

Weather


0- 5 10 15 20 25 30 35+ Temperature / ° C

Clouds and Precipitation
Forecast for 2018-05-20 18:00 UTC. Updated 35 minutes ago

Ground ~20,000 ft ~40,000 ft Winds

METAR

LTBY 201650Z 30008KT 9999 SCT035 18/14 Q1016

TAF

Not found

Frequencies

Tower 121.90 MHz TWR
Tower 123.75 MHz TWR
Warning: Do not use this data for real-world aviation or navigation. No guarantee of current accuracy is given.